Home   Weather   Kazan   Past weeks

Flag for Russia Past Weather in Kazan, Russia — Yesterday and Last 2 Weeks

Now
16 °F

Light snow. Overcast.


Feels Like: 7 °F
Forecast: 20 / 31 °F
Wind: 6 mph from Southwest

Location: Kazan'

Current Time: Jan 19, 2017 at 9:39:43 am

Latest Report: Jan 19, 2017 at 9:00 am


Visibility: 5 mi

Pressure: 30.21 "Hg

Humidity: 93%

Dew Point: 14 °F

Location of KazanLocation

Past Weather in Kazan — Graph

°F

Kazan Temperature Yesterday

Maximum temperature yesterday: 12 °F (at 9:00 pm)
Minimum temperature yesterday: 3 °F (at 4:30 am)
Average temperature yesterday: 7 °F

High & Low Weather Summary for the Past Weeks

 TemperatureHumidityPressure
High23 °F (Jan 5, 5:00 pm)100% (Jan 5, 1:30 pm)30.51 "Hg (Jan 5, 1:30 pm)
Low-17 °F (Jan 8, 5:00 pm)72% (Jan 17, 12:30 pm)29.47 "Hg (Jan 4, 8:00 am)
Average9 °F87%30.19 "Hg
* Reported Jan 4 8:00 am — Jan 19 8:30 am, Kazan, Weather by CustomWeather, © 2017

Note: Actual official high and low records may vary slightly from our data, if they occured in-between our weather recording intervals... More about our weather records

Advertising

Kazan Weather History for the Previous 24 Hours

Scroll right to see more
 ConditionsComfort  
Time TempWeatherWind HumidityBarometerVisibility
8:30 am
Thu, Jan 19
16 °FLight snow. Overcast.8 mph86%30.21 "HgN/A
8:00 am16 °FLight snow. Overcast.8 mph86%30.24 "HgN/A
7:30 am16 °FLight snow. Overcast.6 mph86%30.24 "HgN/A
7:00 am16 °FLight snow. Overcast.6 mph86%30.24 "HgN/A
6:30 am16 °FLight snow. Overcast.6 mph86%30.24 "HgN/A
6:00 am14 °FLight snow. Overcast.6 mph92%30.24 "HgN/A
5:30 am14 °FLight snow. Overcast.6 mph85%30.24 "HgN/A
5:00 am14 °FLight snow. Overcast.6 mph92%30.27 "HgN/A
4:30 am14 °FLight snow. Overcast.6 mph92%30.27 "HgN/A
4:00 am14 °FLight snow. Overcast.3 mph92%30.27 "Hg6 mi
3:30 am14 °FLight snow. Overcast.3 mph92%30.27 "Hg6 mi
3:00 am14 °FLight snow. Overcast.3 mph85%30.30 "Hg6 mi
2:30 am14 °FLight snow. Overcast.6 mph85%30.30 "Hg6 mi
2:00 am16 °FLight snow. Overcast.10 mph79%30.30 "Hg6 mi
1:30 am16 °FLight snow. Overcast.13 mph79%30.30 "HgN/A
1:00 am14 °FLight snow. Overcast.6 mph92%30.30 "HgN/A
12:30 am14 °FLight snow. Overcast.6 mph85%30.30 "Hg5 mi
12:00 am14 °FLight snow. Overcast.6 mph85%30.30 "Hg6 mi
11:30 pm
Wed, Jan 18
12 °FLight snow. Overcast.3 mph92%30.30 "Hg6 mi
11:00 pm12 °FLight snow. Overcast.6 mph92%30.33 "HgN/A
10:30 pm10 °FLight snow. Overcast.3 mph85%30.33 "HgN/A
10:00 pm10 °FLight snow. Overcast.1 mph85%30.33 "Hg6 mi
9:30 pm12 °FLight snow. Overcast.1 mph92%30.33 "Hg6 mi
9:00 pm12 °FLight snow. Overcast.3 mph85%30.33 "HgN/A
8:30 pm10 °FOvercast.3 mph92%30.33 "HgN/A
8:00 pm9 °FOvercast.6 mph92%30.33 "HgN/A
7:30 pm5 °FOvercast.8 mph92%30.36 "HgN/A
7:00 pm7 °FClear.6 mph92%30.36 "Hg10 mi
6:30 pm9 °FLight snow. Clear.6 mph85%30.36 "HgN/A
6:00 pm9 °FLight snow. Clear.6 mph85%30.33 "Hg6 mi
5:30 pm9 °FLight snow. Clear.6 mph85%30.33 "Hg6 mi
5:00 pm9 °FLight snow. Clear.6 mph85%30.33 "Hg6 mi
4:30 pm9 °FLight snow. Passing clouds.6 mph85%30.36 "Hg6 mi
4:00 pm9 °FLight snow. Clear.6 mph92%30.36 "Hg6 mi
3:30 pm7 °FLight snow. Clear.3 mph92%30.36 "Hg6 mi
3:00 pm7 °FLight snow. Clear.6 mph85%30.36 "HgN/A
2:30 pm9 °FSunny.3 mph85%30.33 "Hg10 mi
2:00 pm9 °FPartly sunny.6 mph78%30.33 "HgN/A
1:30 pm9 °FPartly sunny.3 mph85%30.33 "HgN/A
1:00 pm7 °FClear.3 mph85%30.33 "Hg6 mi
12:30 pm7 °FPartly sunny.3 mph85%30.36 "HgN/A
12:00 pm7 °FLight snow. Overcast.3 mph85%30.36 "HgN/A
11:30 am7 °FLight snow. Overcast.3 mph85%30.36 "HgN/A
11:00 am7 °FLight snow. Overcast.3 mph85%30.36 "Hg6 mi
10:30 am7 °FLight snow. Overcast.6 mph92%30.36 "Hg4 mi
10:00 am7 °FLight snow. Overcast.3 mph92%30.36 "Hg3 mi
9:30 am7 °FLight snow. Overcast.3 mph92%30.36 "Hg4 mi
9:00 am7 °FLight snow. Overcast.3 mph85%30.36 "HgN/A
Weather by CustomWeather, © 2017

See weather overviewHow to use our weather pages